Find Starlink 4724

NORAD ID: 53702 Int'l Des: 2022-107 Owner: SPXS Country: US Constellation: starlink operational
LEOCIRCULAR

当前视图

正在加载3D地球...

About Starlink 4724

Starlink 4724 (NORAD 53702) is a starlink constellation satellite (v1.5) launched Sep 5, 2022 by SPXS of US. It operates in LEO, CIRCULAR orbit with a mass of 305.00 kg.

即将过境

Passes for default location (London). Set your location on the main map for personalized predictions.

高度历史

Loading altitude history...

两行轨道根数

1 53702U 22107C 26263.17805678 -.00008234 00000-0 -22516-3 0 9998
2 53702 53.1602 63.5800 0001240 79.6931 280.4212 15.35433825224624
Epoch: Sep 20, 2026 • Age: 27 hours

当前状态

高度 461.6 km
远地点 / 近地点 N/A
速度 7.64 km/s
星下点 35.04°N, 15.75°W
发射日期 Sep 5, 2022
运行时间 4 years
类型 internet

技术详情

分类 Payload
质量 305.00 kg
干质量 290.00 kg
长度 0.20 m
跨度 9.00 m
形状 ? Box + pan
制造商 SPXS
平台类型 Starlink
阶段状态 In Orbit
所有者/国家 SPXS/US

Most Searched